STARLINK-35791, 66896

Orbit data source: Space-Track

STARLINK-35791, 66896 is a payload satellite owned by SpaceX/Seattle (US) in LEO that was launched on Thu, 04 Dec 2025 UTC via an FALCON 9 launch vehicle from the Air Force Western Test Range (AFWTR). Payload-class satellites include a variety of spacecraft equipped with specific instruments for various scientific and technological missions. These include communications satellites like Starlink; space stations such as the ISS; scientific satellites like the Hubble; Earth observation satellites from companies like Planet Labs, Umbra, and HawkEye 360; GPS; miniature CubeSats for education and research; and military/defense satellites.

Loading next visibility...
Identifier
66896, 2025-283U
Orbit
LEO
Country
Flag of USUS
Related business
Manufacturer
SpaceX/Seattle
Mission
Operational Commercial Communications
Bus & Motor
STARLINK V2MO, Unknown motor
Mass
575 kg wet, ~530 kg dry
Launch date (UTC)
2025-12-04 (7 months ago)
Launch vehicle
FALCON 9
Launch site
Air Force Western Test Range (AFWTR)
Object type
Payload
Rocket body
Debris
Shape & HBR
Box + 2 Pan, 17.7 m
Radar Cross Section
36.964 m², Large (>1 m²)

Expand to show TLE details & history
Last TLE update: 1 day ago

TLE from 1 day ago
0 STARLINK-35791
1 66896U 25283U   26170.61843424  .00021002  00000-0  71935-3 0  9996
2 66896  53.1588 270.4512 0001113  97.9167 262.1960 15.30193625 31457
Epoch: 2026-06-19T14:50Z
TLE epoch observation values (Epoch: 2026-06-19T14:50:32.718Z)
Latitude
-0.00002°
Longitude
139.97004°
Altitude
476.237 km
Speed
7.629 km/s
True Right ascension
18h 01m 48s
True Declination
0° 00' 00"
Sunlit
Object was in full shadow at epoch
Visualization orbit readout
Latitude
Unknown
Longitude
Unknown
Altitude
Unknown
Speed
Unknown
Apparent Right ascension
Unknown
Apparent Declination
Unknown
Sunlit
N/A
Visualization observer readout
Local Sidereal Time
07:17:34
Azimuth
Unknown
Elevation
Unknown
Doppler factor
Unknown
Orbital elements
Apogee altitude
476.254 km
Perigee altitude
474.728 km
Semi-major axis
6,853.628 km
Eccentricity
0.00011
Inclination
53.1588°
RAAN
270.4512°
Arg. of periapsis
97.9167°
True anomaly
262.18336°
Mean anomaly
262.196°
Eccentric anomaly
262.18968°
Mean motion
3.82527 °/min
Orbital period
94.11 mins
BSTAR
0.00071935
Loading maneuver chart data...
Computing Atmospheric mass density...
Loading historical data...
Loading historical data...
Loading historical data...
Loading historical data...
Loading historical data...
Loading historical data...
Loading historical data...

Documentation

Showing up to 5 results
|